Flag for Norway Weather past 2 weeks in Fredrikstad, Norway

Now
59 °F

Clear.


Feels Like: 59 °F
Forecast: 54 / 66 °F
Wind: 5 mph from Southwest

Location: Rygge

Current Time: Sep 1, 2014 at 10:59:19 PM

Latest Report: Sep 1, 2014 at 10:20 PM


Visibility: 10 mi

Pressure: 30.18 "Hg

Humidity: 72%

Dew point: 50 °F

Location of FredrikstadLocation

Historic Weather in Fredrikstad — Graph

°F

Fredrikstad temperature yesterday

Maximum temperature yesterday: 64 °F (at 3:50 PM)
Minimum temperature yesterday: 50 °F (at 11:20 PM)
Average temperature yesterday: 58 °F

Past Weeks' High & Low Weather Summary

 TemperatureHumidityPressure
High70 °F (Aug 28, 5:20 PM)100% (Aug 19, 4:50 AM)30.21 "Hg (Aug 19, 4:50 AM)
Low45 °F (Aug 24, 6:50 AM)38% (Aug 27, 4:20 PM)29.18 "Hg (Aug 18, 12:50 PM)
Average57 °F77%29.72 "Hg
* Reported Aug 17 9:20 PM — Sep 1 9:50 PM, Fredrikstad, Weather by CustomWeather, © 2014

Note: Actual official high and low records may vary slightly from our data, if they occured in-between our weather recording intervals... More about our weather records

Advertising

Fredrikstad weather history for previous 24 hours

 ConditionsComfort  
Time TempWeatherWind HumidityBarometerVisibility
9:50 PM
Sep 1
59 °FClear.3 mph72%30.18 "Hg10 mi
9:20 PM59 °FClear.3 mph72%30.18 "Hg10 mi
8:50 PM59 °FSunny.3 mph72%30.18 "Hg10 mi
8:20 PM59 °FSunny.3 mph72%30.18 "Hg10 mi
7:50 PM61 °FSunny.3 mph68%30.18 "Hg10 mi
7:20 PM61 °FSunny.3 mph68%30.18 "Hg10 mi
6:50 PM61 °FSunny.6 mph68%30.18 "Hg10 mi
6:20 PM63 °FSunny.2 mph64%30.18 "Hg10 mi
5:50 PM63 °FSunny.1 mph64%30.18 "Hg10 mi
5:20 PM64 °FSunny.2 mph64%30.18 "Hg10 mi
4:50 PM64 °FPassing clouds.5 mph60%30.18 "HgN/A
4:20 PM63 °FPassing clouds.3 mph59%30.18 "HgN/A
3:50 PM63 °FPartly sunny.6 mph59%30.21 "HgN/A
3:20 PM63 °FBroken clouds.7 mph59%30.21 "HgN/A
2:50 PM63 °FBroken clouds.5 mph59%30.21 "HgN/A
2:20 PM63 °FPartly sunny.2 mph59%30.21 "HgN/A
1:50 PM63 °FPartly sunny.2 mph59%30.21 "HgN/A
1:20 PM63 °FPartly sunny.2 mph56%30.21 "HgN/A
12:50 PM63 °FScattered clouds.2 mph56%30.21 "HgN/A
12:20 PM64 °FScattered clouds.2 mph52%30.21 "HgN/A
11:50 AM63 °FPassing clouds.5 mph56%30.21 "HgN/A
11:20 AM61 °FPassing clouds.5 mph68%30.21 "HgN/A
10:50 AM61 °FPassing clouds.7 mph63%30.21 "HgN/A
10:20 AM59 °FPassing clouds.2 mph72%30.21 "HgN/A
9:50 AM55 °FPassing clouds.3 mph77%30.21 "HgN/A
9:20 AM54 °FSunny.2 mph82%30.21 "Hg10 mi
8:50 AM50 °FSunny.2 mph88%30.21 "Hg10 mi
8:20 AM48 °FSunny.3 mph94%30.21 "Hg10 mi
7:50 AM46 °FSunny.3 mph93%30.21 "Hg10 mi
7:20 AM45 °FSunny.3 mph93%30.18 "Hg10 mi
6:50 AM45 °FClear.3 mph93%30.18 "Hg10 mi
6:20 AM45 °FClear.No wind93%30.18 "Hg10 mi
5:50 AM45 °FQuite cool.3 mph93%30.18 "HgN/A
5:20 AM45 °FQuite cool.3 mph93%30.21 "HgN/A
4:50 AM45 °FQuite cool.5 mph93%30.21 "HgN/A
4:20 AM46 °FCool.5 mph87%30.21 "HgN/A
3:50 AM46 °FCool.5 mph87%30.21 "HgN/A
3:20 AM46 °FCool.6 mph87%30.21 "HgN/A
2:50 AM46 °FCool.5 mph93%30.21 "HgN/A
2:20 AM46 °FCool.5 mph93%30.21 "HgN/A
1:50 AM46 °FCool.3 mph93%30.21 "HgN/A
1:20 AM48 °FCool.3 mph87%30.21 "HgN/A
12:50 AM48 °FCool.5 mph87%30.21 "HgN/A
12:20 AM48 °FCool.3 mph94%30.18 "HgN/A
11:50 PM
Aug 31
50 °FCool.3 mph88%30.18 "HgN/A
11:20 PM50 °FClear.3 mph88%30.18 "Hg10 mi
10:50 PM52 °FClear.3 mph82%30.18 "Hg10 mi
10:20 PM54 °FClear.3 mph77%30.18 "Hg10 mi
Weather by CustomWeather, © 2014

See weather overviewHow to use our weather pages